Voltar ao catálogo

STARLINK-32622

AtivoComunicaçõesVLEO
NORAD 61927·PAYLOAD·🇺🇸 United States

Lançado Nov 11, 2024 de Cape Canaveral Space Force Station

Loading…

Próximas Passagens (próximas 24 horas)

TLE

AtualizadoSource: CelesTrak SupGP

Época: Sep 15, 2026, 03:31 UTC

1 61927C 24207R   26258.14701389  .00005039  00000+0  18247-3 0  2585
2 61927  43.0023 291.4051 0001637 264.6567  21.1461 15.27581326    10

Acompanhe STARLINK-32622 em tempo real com AllMySat

Download on the App Store